Location: Melbourne
(37.8666°S, 145.1333°E)
Time: 07:58:00
(UTC+11:00)

Amateur Radio Satellites - All Passes

Search period start: 27 March 2017 07:28
Search period end: 28 March 2017 07:28
Location: Melbourne, 37.8666°S, 145.1333°E

Satellite Date Start Highest point End Downlink Frequencies (MHz)
Time Altitude Azimuth
XW-2F 27 Mar 07:33:12 07:36:17 23° 275° (W) 07:39:25 145.980 - 146.000
LilacSat-2 27 Mar 07:34:33 07:37:31 21° 275° (W) 07:40:32 437.200
CUTE-I 27 Mar 07:40:32 07:45:17 33° 277° (W) 07:50:06 437.470
UWE-3 27 Mar 07:42:20 07:43:30 11° 116° (ESE) 07:44:41 435.000/436.395/437.385
PCSat 27 Mar 07:55:12 08:00:41 88° 296° (WNW) 08:06:06 145.827
STRAND 1 27 Mar 07:55:57 08:00:15 26° 85° (E) 08:04:32 437.568
NUDT-PHONESAT 27 Mar 08:00:18 08:02:09 13° 272° (W) 08:04:01 437.300
XW-2D 27 Mar 08:01:37 08:02:26 11° 271° (W) 08:03:16 145.860 - 145.880
KAITUO 1B 27 Mar 08:08:22 08:09:24 11° 271° (W) 08:10:27 145.475/437.950
AAUSAT CUBESAT 2 27 Mar 08:09:26 08:13:00 27° 110° (ESE) 08:16:36 437.432
XW-2A 27 Mar 08:11:28 08:14:47 54° 279° (W) 08:18:08 145.665 - 145.685
CUBEBUG 2 27 Mar 08:12:45 08:16:39 40° 107° (ESE) 08:20:38 437.445
Oscar 11 27 Mar 08:15:25 08:17:18 13° 116° (ESE) 08:19:13 .
ZACube-1 27 Mar 08:21:24 08:24:16 18° 113° (ESE) 08:27:11 437.345
ISS 27 Mar 08:22:58 08:25:28 20° 49° (NE) 08:27:59 437.550
Tancredo 1 27 Mar 08:23:08 08:25:42 22° 48° (NE) 08:28:18 437.200
SEEDS 27 Mar 08:23:57 08:28:14 87° 102° (ESE) 08:32:36 437.485
CUTE 1.7 + AOD 2 27 Mar 08:30:52 08:35:02 49° 279° (W) 08:39:17 437.475
M-CUBED/EXP-1 PRIME 27 Mar 08:33:47 08:36:39 26° 246° (WSW) 08:39:27 437.505
AO-73 27 Mar 08:48:47 08:52:32 32° 109° (ESE) 08:56:23 145.935
HO-68 27 Mar 08:58:07 09:04:45 40° 278° (W) 09:11:31 435.675
AO-85 27 Mar 09:02:50 09:07:17 43° 66° (ENE) 09:12:07 145.980
UWE-3 27 Mar 09:15:16 09:19:23 59° 280° (W) 09:23:36 435.000/436.395/437.385
YUBILEINY 27 Mar 09:25:02 09:31:47 25° 261° (W) 09:38:30 435.215
DELFI C3 27 Mar 09:29:23 09:32:37 23° 110° (ESE) 09:35:53 145.870
RS-15 27 Mar 09:29:54 09:40:13 43° 133° (SE) 09:50:49 29.354- 29.394
STRAND 1 27 Mar 09:34:44 09:39:27 35° 249° (WSW) 09:44:06 437.568
AAUSAT CUBESAT 2 27 Mar 09:45:03 09:48:23 23° 275° (W) 09:51:47 437.432
Oscar 11 27 Mar 09:48:37 09:52:53 57° 280° (W) 09:57:15 .
CUBEBUG 2 27 Mar 09:51:13 09:53:29 14° 272° (W) 09:55:46 437.445
ZACube-1 27 Mar 09:56:25 10:00:15 34° 277° (W) 10:04:11 437.345
ISS 27 Mar 09:58:35 10:01:45 39° 214° (SW) 10:04:55 437.550
Tancredo 1 27 Mar 09:58:43 10:01:43 33° 213° (SSW) 10:04:44 437.200
UNISAT 6 27 Mar 10:09:57 10:11:27 11° 89° (E) 10:12:58 437.425
AO-73 27 Mar 10:25:55 10:28:50 18° 273° (W) 10:31:49 145.935
AO-85 27 Mar 10:43:59 10:47:59 25° 227° (SW) 10:52:13 145.980
PRISM 27 Mar 10:54:31 10:58:41 73° 77° (ENE) 11:02:44 437.425
FO-29 27 Mar 10:58:19 11:04:39 33° 84° (E) 11:11:24 435.910
LO-87 27 Mar 11:02:54 11:06:07 30° 108° (ESE) 11:09:22 145.935 - 145.965
DELFI C3 27 Mar 11:03:58 11:07:17 24° 275° (W) 11:10:38 145.870
BEESAT 3 27 Mar 11:24:57 11:28:48 58° 237° (WSW) 11:32:38 437.485
TIGRISAT 27 Mar 11:33:39 11:38:18 89° 265° (W) 11:42:59 435.000
ISS 27 Mar 11:38:05 11:38:58 11° 195° (SSW) 11:39:52 437.550
BEESAT 2 27 Mar 11:40:36 11:44:33 77° 61° (ENE) 11:48:30 435.950
RS-15 27 Mar 11:42:13 11:52:51 57° 292° (WNW) 12:03:56 29.354- 29.394
UNISAT 6 27 Mar 11:43:55 11:48:31 64° 255° (WSW) 11:53:08 437.425
VELOX 1 27 Mar 11:45:27 11:48:21 17° 114° (ESE) 11:51:17 145.980
AIST 2D 27 Mar 11:45:58 11:48:03 14° 87° (E) 11:50:07 435.315
SO-50 27 Mar 11:55:01 11:59:33 38° 127° (SE) 12:04:02 436.795
50 SAT 27 Mar 12:00:36 12:01:51 12° 114° (ESE) 12:03:07 437.505
ESTCUBE 1 27 Mar 12:07:56 12:12:30 81° 284° (WNW) 12:17:09 437.505/2401.250
NANOSAT C BR1 27 Mar 12:09:20 12:11:55 16° 87° (E) 12:14:31 145.865
EO-79 27 Mar 12:13:33 12:16:40 19° 86° (E) 12:19:46 145.935-145.965
SPROUT 27 Mar 12:27:24 12:31:23 40° 108° (ESE) 12:35:25 437.525
LO-87 27 Mar 12:37:38 12:39:38 14° 273° (W) 12:41:39 145.935 - 145.965
POLYITAN 1 27 Mar 12:40:56 12:45:02 40° 81° (E) 12:49:05 437.675
FO-29 27 Mar 12:42:59 12:49:41 48° 250° (WSW) 12:56:57 435.910
QB50P2 27 Mar 12:45:30 12:49:43 49° 80° (E) 12:53:53 145.880/145.840
DX 1 27 Mar 12:56:45 13:00:53 41° 108° (ESE) 13:05:02 434.975-435.025
DUCHIFAT 1 27 Mar 12:57:26 13:01:37 51° 80° (E) 13:05:47 145.980
BUGSAT 1 27 Mar 13:13:24 13:16:48 24° 84° (E) 13:20:12 437.445
AIST 2D 27 Mar 13:18:07 13:21:20 29° 252° (WSW) 13:24:29 435.315
VELOX 1 27 Mar 13:20:13 13:24:27 42° 279° (W) 13:28:43 145.980
BEESAT 2 27 Mar 13:21:45 13:22:49 11° 224° (SW) 13:23:52 435.950
50 SAT 27 Mar 13:31:09 13:34:30 39° 279° (W) 13:37:54 437.505
SO-50 27 Mar 13:35:58 13:39:48 24° 291° (WNW) 13:43:36 436.795
UKube-1 27 Mar 13:36:11 13:40:32 82° 104° (ESE) 13:44:56 .
NANOSAT C BR1 27 Mar 13:43:46 13:47:47 40° 252° (WSW) 13:51:47 145.865
EO-79 27 Mar 13:48:36 13:52:28 32° 251° (WSW) 13:56:17 145.935-145.965
ITUPSAT 1 27 Mar 14:04:46 14:06:47 13° 118° (ESE) 14:08:49 437.325
SPROUT 27 Mar 14:04:52 14:07:27 16° 273° (W) 14:10:03 437.525
POLYITAN 1 27 Mar 14:17:43 14:20:27 17° 246° (WSW) 14:23:12 437.675
QB50P2 27 Mar 14:22:51 14:25:03 14° 245° (WSW) 14:27:13 145.880/145.840
DX 1 27 Mar 14:34:30 14:37:13 16° 273° (W) 14:39:57 434.975-435.025
DUCHIFAT 1 27 Mar 14:34:48 14:36:49 13° 245° (WSW) 14:38:51 145.980
O/OREOS (USA 219) 27 Mar 14:35:17 14:38:36 20° 121° (ESE) 14:41:53 437.305
Oscar 19 27 Mar 14:39:05 14:44:16 62° 79° (ENE) 14:49:22 437.125/150
BUGSAT 1 27 Mar 14:48:40 14:52:03 25° 249° (WSW) 14:55:28 437.445
Tancredo 1 27 Mar 14:50:53 14:53:18 19° 154° (SSE) 14:55:41 437.200
ISS 27 Mar 14:51:56 14:54:21 18° 155° (SSE) 14:56:46 437.550
Gurwin Techsat 1B 27 Mar 14:55:19 15:00:33 49° 80° (E) 15:05:42 435.225
AO-7 27 Mar 15:13:28 15:16:58 13° 91° (E) 15:20:26 .
BEESAT 27 Mar 15:22:46 15:27:32 82° 102° (ESE) 15:32:24 436.000
MOZHAYETS 4 27 Mar 15:37:34 15:41:57 44° 107° (ESE) 15:46:25
ITUPSAT 1 27 Mar 15:39:13 15:43:58 70° 282° (WNW) 15:48:49 437.325
O/OREOS (USA 219) 27 Mar 16:13:57 16:18:08 37° 285° (WNW) 16:22:16 437.305
Oscar 19 27 Mar 16:19:58 16:23:01 16° 243° (WSW) 16:26:02 437.125/150
Tancredo 1 27 Mar 16:26:29 16:29:38 54° 316° (NW) 16:32:46 437.200
ITAMSAT 1 27 Mar 16:26:31 16:31:45 59° 79° (ENE) 16:36:55 435.822/435.867
ISS 27 Mar 16:27:49 16:31:06 62° 317° (NW) 16:34:21 437.550
CUBESAT XI-V 27 Mar 16:31:07 16:35:07 27° 111° (ESE) 16:39:08 437.345
Gurwin Techsat 1B 27 Mar 16:36:14 16:40:05 20° 244° (WSW) 16:43:54 435.225
KKS-1 27 Mar 16:53:11 16:57:36 64° 106° (ESE) 17:02:03 437.445
AO-7 27 Mar 17:02:23 17:10:53 78° 74° (ENE) 17:19:16 .
MOZHAYETS 4 27 Mar 17:16:26 17:19:19 16° 272° (W) 17:22:15
STARS 27 Mar 17:28:22 17:32:44 67° 105° (ESE) 17:37:08 437.465
AO-85 27 Mar 17:35:58 17:40:37 29° 131° (SE) 17:45:08 145.980
M-CUBED/EXP-1 PRIME 27 Mar 17:43:51 17:46:50 19° 116° (ESE) 17:49:42 437.505
ITAMSAT 1 27 Mar 18:07:22 18:10:40 17° 243° (WSW) 18:13:58 435.822/435.867
CUBESAT XI-V 27 Mar 18:08:17 18:12:22 28° 276° (W) 18:16:29 437.345
CUTE-I 27 Mar 18:21:08 18:23:30 13° 90° (E) 18:25:50 437.470
NO-84 27 Mar 18:26:48 18:30:42 33° 54° (NE) 18:34:44 435.350 FM
KKS-1 27 Mar 18:33:37 18:34:32 11° 271° (W) 18:35:27 437.445
YUBILEINY 27 Mar 18:34:55 18:38:29 13° 105° (ESE) 18:42:05 435.215
AO-7 27 Mar 18:56:29 19:02:45 24° 235° (SW) 19:08:59 .
DOVE 4 27 Mar 19:03:23 19:07:28 48° 81° (E) 19:11:35 437.250
XW-2F 27 Mar 19:06:25 19:10:06 38° 82° (E) 19:13:44 145.980 - 146.000
LilacSat-2 27 Mar 19:08:32 19:12:20 44° 81° (E) 19:16:05 437.200
STRAND 1 27 Mar 19:10:01 19:14:28 31° 112° (ESE) 19:18:59 437.568
AO-85 27 Mar 19:16:14 19:21:15 41° 293° (WNW) 19:26:01 145.980
M-CUBED/EXP-1 PRIME 27 Mar 19:17:04 19:21:03 35° 284° (WNW) 19:24:49 437.505
NUDT-PHONESAT 27 Mar 19:30:21 19:34:12 65° 79° (E) 19:37:59 437.300
XW-2D 27 Mar 19:32:28 19:36:26 89° 257° (WSW) 19:40:19 145.860 - 145.880
KAITUO 1B 27 Mar 19:38:13 19:42:08 84° 79° (ENE) 19:45:58 145.475/437.950
XW-2B 27 Mar 19:38:26 19:42:22 78° 256° (WSW) 19:46:15 145.730 - 145.750
BEESAT 3 27 Mar 19:43:22 19:47:00 40° 125° (SE) 19:50:38 437.485
XW-2C 27 Mar 19:48:42 19:52:34 55° 256° (WSW) 19:56:23 145.795 - 145.815
CUTE-I 27 Mar 19:58:37 20:04:01 72° 254° (WSW) 20:09:23 437.470
BEESAT 2 27 Mar 20:00:18 20:03:34 25° 129° (SE) 20:06:49 435.950
NO-84 27 Mar 20:04:14 20:08:22 37° 217° (SW) 20:12:34 435.350 FM
CUBEBUG 2 27 Mar 20:07:15 20:08:28 11° 90° (E) 20:09:42 437.445
SEEDS 27 Mar 20:10:46 20:13:32 17° 87° (E) 20:16:15 437.485
CUTE 1.7 + AOD 2 27 Mar 20:17:41 20:21:34 31° 84° (E) 20:25:23 437.475
YUBILEINY 27 Mar 20:24:55 20:33:40 79° 85° (E) 20:42:35 435.215
HO-68 27 Mar 20:27:12 20:34:08 46° 80° (E) 20:40:58 435.675
XW-2F 27 Mar 20:41:46 20:43:53 14° 247° (WSW) 20:45:59 145.980 - 146.000
DOVE 4 27 Mar 20:42:48 20:44:46 13° 246° (WSW) 20:46:42 437.250
LilacSat-2 27 Mar 20:44:26 20:46:12 13° 246° (WSW) 20:47:55 437.200
STRAND 1 27 Mar 20:49:11 20:53:35 29° 276° (W) 20:58:03 437.568
PCSat 27 Mar 20:54:24 20:57:23 15° 76° (ENE) 21:00:23 145.827
UWE-3 27 Mar 21:06:21 21:10:28 31° 84° (E) 21:14:36 435.000/436.395/437.385
XW-2A 27 Mar 21:07:45 21:11:03 39° 254° (WSW) 21:14:18 145.665 - 145.685
BEESAT 3 27 Mar 21:22:14 21:24:13 14° 289° (WNW) 21:26:12 437.485
AAUSAT CUBESAT 2 27 Mar 21:27:52 21:32:05 63° 80° (E) 21:36:12 437.432
Oscar 11 27 Mar 21:37:51 21:41:44 29° 84° (E) 21:45:34 .
BEESAT 2 27 Mar 21:38:03 21:41:14 24° 293° (WNW) 21:44:23 435.950
CUBEBUG 2 27 Mar 21:40:52 21:45:26 66° 255° (WSW) 21:50:04 437.445
PRISM 27 Mar 21:41:43 21:45:38 39° 108° (ESE) 21:49:35 437.425
SEEDS 27 Mar 21:45:21 21:49:20 37° 252° (WSW) 21:53:14 437.485
NO-84 27 Mar 21:45:33 21:47:10 12° 198° (SSW) 21:48:48 435.350 FM
ZACube-1 27 Mar 21:45:40 21:50:08 49° 81° (E) 21:54:35 437.345
JUGNU 27 Mar 21:52:01 21:54:38 13° 1° (N) 21:57:14 437.505
CUTE 1.7 + AOD 2 27 Mar 21:53:55 21:57:10 21° 248° (WSW) 22:00:22 437.475
AO-73 27 Mar 22:13:38 22:18:14 88° 252° (WSW) 22:22:51 145.935
HO-68 27 Mar 22:15:18 22:21:35 33° 243° (WSW) 22:27:49 435.675
YUBILEINY 27 Mar 22:25:12 22:31:27 21° 246° (WSW) 22:37:48 435.215
TIGRISAT 27 Mar 22:30:25 22:34:39 62° 106° (ESE) 22:38:58 435.000
PCSat 27 Mar 22:34:46 22:40:09 66° 240° (WSW) 22:45:35 145.827
UNISAT 6 27 Mar 22:40:43 22:45:01 89° 106° (ESE) 22:49:25 437.425
DELFI C3 27 Mar 22:42:04 22:45:57 46° 81° (E) 22:49:46 145.870
UWE-3 27 Mar 22:43:04 22:46:44 24° 249° (WSW) 22:50:25 435.000/436.395/437.385
FO-29 27 Mar 22:53:59 22:59:10 66° 107° (ESE) 23:04:46 435.910
EO-79 27 Mar 23:05:41 23:07:20 12° 116° (ESE) 23:09:01 145.935-145.965
AAUSAT CUBESAT 2 27 Mar 23:06:09 23:06:56 10° 244° (WSW) 23:07:45 437.432
Oscar 11 27 Mar 23:14:13 23:17:41 23° 248° (WSW) 23:21:07 .
PRISM 27 Mar 23:18:35 23:21:03 15° 273° (W) 23:23:33 437.425
ZACube-1 27 Mar 23:23:15 23:25:58 16° 246° (WSW) 23:28:41 437.345
POLYITAN 1 27 Mar 23:32:01 23:35:25 24° 111° (ESE) 23:38:52 437.675
QB50P2 27 Mar 23:36:24 23:40:03 29° 110° (ESE) 23:43:46 145.880/145.840
JUGNU 27 Mar 23:41:42 23:42:45 10° 350° (N) 23:43:48 437.505
DUCHIFAT 1 27 Mar 23:47:31 23:51:10 29° 110° (ESE) 23:54:50 145.980
AIST 2D 27 Mar 23:49:59 23:53:30 69° 103° (ESE) 23:57:05 435.315
RS-15 27 Mar 23:53:19 00:02:13 28° 76° (ENE) 00:10:54 29.354- 29.394
SRMSAT 27 Mar 23:56:22 23:58:47 13° 4° (N) 00:01:12 437.500
BUGSAT 1 28 Mar 00:02:37 00:04:41 14° 115° (ESE) 00:06:44 437.445
ESTCUBE 1 28 Mar 00:02:50 00:06:34 24° 85° (E) 00:10:14 437.505/2401.250
LO-87 28 Mar 00:04:36 00:08:08 48° 80° (E) 00:11:36 145.935 - 145.965
DELFI C3 28 Mar 00:18:32 00:20:18 13° 246° (WSW) 00:22:02 145.870
PCSat 28 Mar 00:23:13 00:24:37 11° 221° (SW) 00:26:00 145.827
NANOSAT C BR1 28 Mar 00:33:20 00:37:31 70° 282° (WNW) 00:41:47 145.865
EO-79 28 Mar 00:38:27 00:42:36 55° 280° (W) 00:46:47 145.935-145.965
FO-29 28 Mar 00:42:39 00:44:57 13° 268° (W) 00:47:19 435.910
50 SAT 28 Mar 00:58:16 01:00:14 14° 87° (E) 01:02:10 437.505
NO-84 28 Mar 01:03:18 01:06:04 16° 155° (SSE) 01:08:41 435.350 FM
POLYITAN 1 28 Mar 01:07:35 01:11:06 25° 276° (W) 01:14:39 437.675
VELOX 1 28 Mar 01:11:51 01:16:02 40° 82° (E) 01:20:11 145.980
QB50P2 28 Mar 01:12:37 01:15:50 21° 275° (W) 01:19:05 145.880/145.840
DUCHIFAT 1 28 Mar 01:23:40 01:26:49 20° 275° (W) 01:30:01 145.980
UKube-1 28 Mar 01:26:20 01:28:56 15° 87° (E) 01:31:31 .
BUGSAT 1 28 Mar 01:35:45 01:39:37 43° 279° (W) 01:43:32 437.445
ESTCUBE 1 28 Mar 01:39:21 01:43:19 29° 249° (WSW) 01:47:13 437.505/2401.250
SRMSAT 28 Mar 01:44:59 01:47:04 12° 354° (N) 01:49:09 437.500
SPROUT 28 Mar 01:50:12 01:54:33 81° 255° (WSW) 01:58:52 437.525
Oscar 19 28 Mar 01:53:51 01:59:04 75° 105° (ESE) 02:04:21 437.125/150
RS-15 28 Mar 02:02:22 02:13:33 72° 237° (WSW) 02:24:29 29.354- 29.394
SO-50 28 Mar 02:08:51 02:11:53 17° 71° (ENE) 02:14:57 436.795
AO-7 28 Mar 02:10:16 02:15:43 20° 128° (SE) 02:21:11 .
Gurwin Techsat 1B 28 Mar 02:14:27 02:19:44 66° 106° (ESE) 02:25:05 435.225
DX 1 28 Mar 02:22:21 02:26:46 81° 255° (WSW) 02:31:07 434.975-435.025
50 SAT 28 Mar 02:30:15 02:33:19 28° 252° (WSW) 02:36:20 437.505
NO-84 28 Mar 02:40:12 02:44:25 81° 134° (SE) 02:48:12 435.350 FM
VELOX 1 28 Mar 02:49:12 02:52:09 18° 246° (WSW) 02:55:05 145.980
UKube-1 28 Mar 03:01:01 03:05:08 41° 252° (WSW) 03:09:12 .
BEESAT 28 Mar 03:25:18 03:29:12 24° 85° (E) 03:33:03 436.000
MOZHAYETS 4 28 Mar 03:36:21 03:38:14 12° 90° (E) 03:40:07
Oscar 19 28 Mar 03:37:05 03:38:54 12° 270° (W) 03:40:41 437.125/150
ITUPSAT 1 28 Mar 03:41:41 03:46:09 34° 82° (E) 03:50:32 437.325
ITAMSAT 1 28 Mar 03:42:34 03:47:45 75° 106° (ESE) 03:53:00 435.822/435.867
SO-50 28 Mar 03:47:27 03:51:55 48° 235° (SW) 03:56:31 436.795
Gurwin Techsat 1B 28 Mar 03:57:25 04:00:07 14° 271° (W) 04:02:50 435.225
AO-7 28 Mar 03:58:57 04:07:18 88° 107° (ESE) 04:15:46 .
RS-15 28 Mar 04:19:56 04:28:12 23° 210° (SSW) 04:36:28 29.354- 29.394
O/OREOS (USA 219) 28 Mar 04:45:19 04:49:16 29° 77° (ENE) 04:53:14 437.305
KKS-1 28 Mar 04:47:29 04:49:49 14° 88° (E) 04:52:08 437.445
BEESAT 28 Mar 05:02:38 05:06:58 33° 249° (WSW) 05:11:17 436.000
MOZHAYETS 4 28 Mar 05:11:06 05:15:46 60° 254° (WSW) 05:20:22
ITUPSAT 1 28 Mar 05:19:52 05:23:45 24° 247° (WSW) 05:27:34 437.325
STARS 28 Mar 05:21:03 05:23:22 14° 88° (E) 05:25:39 437.465
ITAMSAT 1 28 Mar 05:26:03 05:27:44 11° 270° (W) 05:29:26 435.822/435.867
CUTE-I 28 Mar 05:40:40 05:44:22 19° 116° (ESE) 05:48:05 437.470
PCSat 28 Mar 05:43:50 05:45:22 11° 139° (SE) 05:46:53 145.827
XW-2F 28 Mar 05:46:45 05:48:58 15° 113° (ESE) 05:51:13 145.980 - 146.000
LilacSat-2 28 Mar 05:49:26 05:52:04 18° 112° (ESE) 05:54:44 437.200
AO-7 28 Mar 05:55:54 06:00:57 17° 272° (W) 06:06:05 .
CUBESAT XI-V 28 Mar 06:05:47 06:10:33 83° 76° (ENE) 06:15:12 437.345
DOVE 4 28 Mar 06:06:38 06:11:08 42° 107° (ESE) 06:15:26 437.250
NUDT-PHONESAT 28 Mar 06:08:28 06:11:24 22° 110° (ESE) 06:14:22 437.300
XW-2D 28 Mar 06:11:57 06:15:21 32° 108° (ESE) 06:18:51 145.860 - 145.880
KAITUO 1B 28 Mar 06:16:37 06:19:53 28° 109° (ESE) 06:23:13 145.475/437.950
XW-2B 28 Mar 06:17:47 06:21:18 36° 107° (ESE) 06:24:53 145.730 - 145.750
KKS-1 28 Mar 06:22:17 06:26:37 49° 253° (WSW) 06:30:55 437.445
O/OREOS (USA 219) 28 Mar 06:24:52 06:28:38 25° 241° (WSW) 06:32:25 437.305
XW-2C 28 Mar 06:27:48 06:31:30 50° 105° (ESE) 06:35:16 145.795 - 145.815
YUBILEINY 28 Mar 06:37:53 06:45:55 36° 107° (ESE) 06:53:49 435.215
RS-15 28 Mar 06:40:37 06:46:30 15° 173° (S) 06:52:25 29.354- 29.394
HO-68 28 Mar 06:54:26 07:00:26 29° 118° (ESE) 07:06:29 435.675
STARS 28 Mar 06:55:39 06:59:56 48° 252° (WSW) 07:04:11 437.465
M-CUBED/EXP-1 PRIME 28 Mar 06:59:01 07:00:17 12° 82° (E) 07:01:34 437.505
CUTE 1.7 + AOD 2 28 Mar 07:09:04 07:12:06 19° 113° (ESE) 07:15:08 437.475
XW-2F 28 Mar 07:19:19 07:22:47 34° 277° (W) 07:26:21 145.980 - 146.000
STRAND 1 28 Mar 07:24:17 07:26:05 12° 90° (E) 07:27:52 437.568
